Weather in Bellevue

United States     47°36′01″N   122°09′32″W
temp.,
°C
wind,
m/s
gust,
m/s
humid.,
%
clouds,
%
prec.,
mm/h
press.,
hPa
HPBL,
m
18 may, tue
tue1823:00+10ssw6149234 2.8 10131245
02:00+7ssw6129222 0.1 1017983
05:00+7ssw6128812 0.1 1018806
08:00+10ssw611691 0.0 10191096
11:00+12sw685269 0.6 10201933
14:00+15ssw6838100 0.8 10182293
17:00+12n4558100 0.9 1019801
20:00+9nne368687 1.6 1019206
19 may, wed
wed1923:00+7ese138959 2.1 102083
02:00+6se129364 0.3 102093
05:00+5s129397 0.3 1020120
08:00+6s128899 0.1 1021284
11:00+10ne126760 0.3 1020918
14:00+14n233850 0.7 10181976
17:00+14nnw443328 0.7 10162040
20:00+11n365197 0.0 1017533
20 may, thu
thu2023:00+7ese117031 0.0 101815
02:00+5sse238396 0.0 101989
05:00+6s2385100 0.0 1019167
08:00+7s2382100 0.1 1020240
11:00+8sse2378100 0.1 1020520
14:00+11se3263100 0.0 1020907
17:00+13sse115695 0.0 10191206
20:00+11ese236591 0.0 1019111
21 may, fri
fri2123:00+8se228133 0.0 102038
02:00+7ssw12903 0.0 102071
05:00+6s119510 0.0 102137
08:00+9sw117948 0.0 1021390
11:00+15w125444 0.0 10201134
14:00+20nnw24400 0.0 10191599
17:00+20nnw34362 0.0 10171093
20:00+16n245021 0.0 1017183
22 may, sat
sat2223:00+11ne01684 0.0 101810
02:00+9s22845 0.0 101973
05:00+7ssw12959 0.0 101996
08:00+11ssw128065 0.0 1018438
11:00+18sw21495 0.0 1017945
14:00+23w12350 0.0 10151508
17:00+25wnw13300 0.0 10132015
20:00+19wsw35496 0.0 1014431